Zurück zum Katalog

STARLINK-36396

AktivKommunikationVLEO
NORAD 67494·PAYLOAD·🇺🇸 United States

Gestartet Jan 18, 2026 von Cape Canaveral Space Force Station

Loading…

Nächste Überflüge (nächste 24 Stunden)

TLE

AktuellSource: CelesTrak SupGP

Epoche: Sep 14, 2026, 23:05 UTC

1 67494C 26012B   26257.96229167 -.00003296  00000+0 -11939-3 0  2579
2 67494  43.0008 325.6338 0001512 272.0186 218.7746 15.27574373    12

Verfolge STARLINK-36396 in Echtzeit mit AllMySat

Download on the App Store